Location: Sihaung
(22.8641°N, 94.0549°E)
Time: 12:48:43
(UTC+00:00)

Cosmos 2322 Rocket - Pass Details

Date: 03 March 2021
Orbit: 832 x 852 km, 71.0° (Epoch: 16 April)

Event Time Altitude Azimuth Distance (km) Brightness Sun altitude
Rises 12:11:56 0° 211° (SSW) 3,362 5.9 -6.3°
Reaches altitude 10° 12:14:27 10° 216° (SW) 2,430 5.2 -6.9°
Maximum altitude 12:19:47 47° 290° (WNW) 1,084 3.3 -8.1°
Drops below altitude 10° 12:25:09 10° 4° (N) 2,438 4.5 -9.3°
Sets 12:27:42 0° 10° (N) 3,375 5.2 -9.9°
